SL-8 DEB, 1478

Orbit data source: Space-Track

SL-8 DEB, 1478 is space debris in LEO originally from a launch on Mon, 15 Mar 1965 UTC launched from the Tyuratam Missile And Space Complex (TTMTR). Debris objects in space refer to the collection of defunct objects orbiting the Earth. Examples of debris include non-operational satellites, rocket bodies, and fragments generated from explosions, collisions, or faulty payload assembly.

Loading next visibility...
Identifier
1478, 1965-020BC
Orbit
LEO
Country
Flag of CISCIS
Related business
Manufacturer
Unknown
Mission
Spacecraft
Bus & Motor
Unknown
Mass
Unknown
Launch date (UTC)
1965-03-15 (61 years ago)
Launch vehicle
Unknown
Launch site
Tyuratam Missile And Space Complex (TTMTR)
Object type
Payload
Rocket body
Debris
Shape & HBR
Unknown shape, 0.1 m
Radar Cross Section
Medium (>0.1 m² and <1 m²)

Expand to show TLE details & history
Last TLE update: 10 hours ago

TLE from 10 hours ago
0 SL-8 DEB
1 01478U 65020BC  26122.77194587  .00000829  00000-0  44949-3 0  9996
2 01478  56.0744 136.2779 0588188 160.4127 202.0494 13.55945179918718
Epoch: 2026-05-02T18:31Z
TLE epoch observation values (Epoch: 2026-05-02T18:31:36.123Z)
Latitude
-0.00002°
Longitude
-2.30768°
Altitude
1,459.927 km
Speed
6.935 km/s
True Right ascension
09h 05m 06s
True Declination
0° 00' 00"
Sunlit
Object was in daylight at epoch
Visualization orbit readout
Latitude
Unknown
Longitude
Unknown
Altitude
Unknown
Speed
Unknown
Apparent Right ascension
Unknown
Apparent Declination
Unknown
Sunlit
N/A
Visualization observer readout
Local Sidereal Time
12:03:43
Azimuth
Unknown
Elevation
Unknown
Doppler factor
Unknown
Orbital elements
Apogee altitude
1,487.204 km
Perigee altitude
613.344 km
Semi-major axis
7,428.411 km
Eccentricity
0.05882
Inclination
56.0744°
RAAN
136.2779°
Arg. of periapsis
160.4127°
True anomaly
199.68158°
Mean anomaly
202.0494°
Eccentric anomaly
200.84992°
Mean motion
3.39 °/min
Orbital period
106.19 mins
BSTAR
0.00044949
Loading maneuver chart data...
Computing Atmospheric mass density...
Loading historical data...
Loading historical data...
Loading historical data...
Loading historical data...
Loading historical data...
Loading historical data...
Loading historical data...

Documentation

Showing up to 5 results
|